MSR914 HECA-OMAA

Flight info

Callsign MSR914
Flight time 3h 15m
Altitude 37000
Route CVO L315 HGD M872 PMA Y214 RAPMA DCT TANSU G783 ELUDA N563 NOBTO
Aircraft B738/M-SDE2E3FGHIRWXY/LB1

Departure

Time 2026-04-27 13:54
Airport Cairo International Airport (HECA)

Arrival

Time 2026-04-27 17:09
Airport Zayed International Airport (OMAA)
Time Latitude Longitude Altitude Speed Heading
2026-04-27 13:40 30.10869 31.39658 373 ft 0 kts 254°
2026-04-27 13:43 30.10870 31.39658 373 ft 0 kts 254°
2026-04-27 13:44 30.10873 31.39670 373 ft 2 kts 249°
2026-04-27 13:44 30.10879 31.39688 401 ft 2 kts 246°
2026-04-27 13:45 30.10886 31.39705 369 ft 2 kts 239°
2026-04-27 13:45 30.10896 31.39720 373 ft 2 kts 225°
2026-04-27 13:45 30.10909 31.39732 373 ft 2 kts 204°
2026-04-27 13:45 30.10925 31.39737 373 ft 2 kts 180°
2026-04-27 13:46 30.10936 31.39736 373 ft 2 kts 170°
2026-04-27 13:46 30.10944 31.39734 373 ft 0 kts 166°
2026-04-27 13:47 30.10943 31.39734 373 ft 1 kts 166°
2026-04-27 13:47 30.10916 31.39742 373 ft 8 kts 165°
2026-04-27 13:47 30.10833 31.39767 373 ft 16 kts 165°
2026-04-27 13:47 30.10701 31.39809 373 ft 20 kts 158°
2026-04-27 13:48 30.10694 31.39927 373 ft 17 kts 74°
2026-04-27 13:48 30.10746 31.40068 373 ft 21 kts 48°
2026-04-27 13:48 30.10874 31.40125 373 ft 20 kts
2026-04-27 13:48 30.10988 31.40192 373 ft 18 kts 75°
2026-04-27 13:49 30.10958 31.40336 373 ft 20 kts 107°
2026-04-27 13:49 30.10919 31.40495 373 ft 21 kts 96°
2026-04-27 13:49 30.10997 31.40637 374 ft 22 kts 49°
2026-04-27 13:49 30.11087 31.40773 374 ft 17 kts 78°
2026-04-27 13:50 30.11060 31.40875 374 ft 14 kts 70°
2026-04-27 13:50 30.11128 31.40970 374 ft 18 kts 49°
2026-04-27 13:50 30.11227 31.41101 374 ft 25 kts 49°
2026-04-27 13:50 30.11355 31.41272 374 ft 31 kts 49°
2026-04-27 13:51 30.11502 31.41468 374 ft 33 kts 49°
2026-04-27 13:51 30.11655 31.41671 374 ft 34 kts 49°
2026-04-27 13:51 30.11807 31.41873 374 ft 34 kts 49°
2026-04-27 13:51 30.11962 31.42081 374 ft 34 kts 49°
2026-04-27 13:52 30.12120 31.42290 374 ft 35 kts 49°
2026-04-27 13:52 30.12203 31.42454 374 ft 17 kts 107°
2026-04-27 13:52 30.12121 31.42549 373 ft 17 kts 139°
2026-04-27 13:52 30.12038 31.42577 371 ft 9 kts 223°
2026-04-27 13:53 30.11609 31.42006 369 ft 112 kts 229°
2026-04-27 13:53 30.10961 31.41133 373 ft 170 kts 230°
2026-04-27 13:53 30.10096 31.40069 800 ft 190 kts 229°
2026-04-27 13:54 30.09176 31.38877 1508 ft 202 kts 233°
2026-04-27 13:54 30.08036 31.37791 1870 ft 234 kts 204°
2026-04-27 13:54 30.06297 31.37617 1983 ft 267 kts 168°
2026-04-27 13:54 30.04634 31.38491 2921 ft 258 kts 147°
2026-04-27 13:55 30.03173 31.39679 3688 ft 257 kts 143°
2026-04-27 13:55 30.01741 31.40939 4367 ft 260 kts 142°
2026-04-27 13:55 30.00298 31.42227 5037 ft 265 kts 142°
2026-04-27 13:55 29.98821 31.43524 5695 ft 271 kts 142°
2026-04-27 13:56 29.97281 31.44870 6240 ft 286 kts 143°
2026-04-27 13:56 29.95672 31.46273 6997 ft 293 kts 142°
2026-04-27 13:56 29.94025 31.47711 7734 ft 300 kts 142°
2026-04-27 13:56 29.92353 31.49170 8583 ft 303 kts 142°
2026-04-27 13:57 29.90661 31.50648 9377 ft 308 kts 142°
2026-04-27 13:57 29.88937 31.52155 10120 ft 313 kts 142°
2026-04-27 13:57 29.87153 31.53714 10455 ft 334 kts 142°
2026-04-27 13:57 29.85257 31.55372 10639 ft 358 kts 142°
2026-04-27 13:58 29.83181 31.57185 10822 ft 381 kts 142°
2026-04-27 13:58 29.81033 31.59059 11243 ft 393 kts 142°
2026-04-27 13:58 29.78835 31.60975 11871 ft 398 kts 142°
2026-04-27 13:58 29.76611 31.62912 12550 ft 402 kts 142°
2026-04-27 13:59 29.74365 31.64866 13193 ft 407 kts 141°
2026-04-27 13:59 29.72092 31.66845 13798 ft 412 kts 141°
2026-04-27 13:59 29.69779 31.68856 14339 ft 417 kts 142°
2026-04-27 13:59 29.67458 31.70874 14941 ft 420 kts 142°
2026-04-27 14:00 29.65115 31.72909 15531 ft 423 kts 142°
2026-04-27 14:00 29.62759 31.74954 16096 ft 427 kts 142°
2026-04-27 14:00 29.60380 31.77019 16682 ft 430 kts 143°
2026-04-27 14:00 29.57983 31.79097 17245 ft 433 kts 143°
2026-04-27 14:01 29.55595 31.81167 17780 ft 437 kts 143°
2026-04-27 14:01 29.53158 31.83278 18318 ft 441 kts 143°
2026-04-27 14:01 29.50697 31.85408 18757 ft 444 kts 144°
2026-04-27 14:01 29.48219 31.87551 19227 ft 447 kts 144°
2026-04-27 14:02 29.45725 31.89701 19718 ft 450 kts 144°
2026-04-27 14:02 29.43209 31.91874 20188 ft 454 kts 144°
2026-04-27 14:02 29.40684 31.94057 20663 ft 457 kts 144°
2026-04-27 14:02 29.38138 31.96256 21134 ft 459 kts 144°
2026-04-27 14:03 29.35577 31.98466 21576 ft 463 kts 144°
2026-04-27 14:03 29.32990 32.00697 21990 ft 466 kts 144°
2026-04-27 14:03 29.30389 32.02937 22411 ft 469 kts 145°
2026-04-27 14:03 29.27770 32.05191 22855 ft 472 kts 145°
2026-04-27 14:04 29.25138 32.07456 23289 ft 474 kts 145°
2026-04-27 14:04 29.22494 32.09728 23661 ft 477 kts 145°
2026-04-27 14:04 29.19819 32.12026 24010 ft 479 kts 145°
2026-04-27 14:04 29.17149 32.14318 24385 ft 481 kts 145°
2026-04-27 14:05 29.14461 32.16624 24749 ft 482 kts 145°
2026-04-27 14:05 29.11774 32.18929 25110 ft 484 kts 146°
2026-04-27 14:05 29.09082 32.21235 25459 ft 485 kts 146°
2026-04-27 14:05 29.06593 32.23366 25772 ft 487 kts 146°
2026-04-27 14:06 29.03881 32.25687 26117 ft 488 kts 146°
2026-04-27 14:06 29.01155 32.28017 26458 ft 489 kts 146°
2026-04-27 14:06 28.98423 32.30352 26773 ft 491 kts 146°
2026-04-27 14:06 28.95684 32.32691 27089 ft 492 kts 146°
2026-04-27 14:07 28.92940 32.35032 27386 ft 494 kts 146°
2026-04-27 14:07 28.90180 32.37386 27691 ft 495 kts 146°
2026-04-27 14:07 28.87417 32.39740 27996 ft 497 kts 146°
2026-04-27 14:07 28.84637 32.42108 28281 ft 499 kts 146°
2026-04-27 14:08 28.81852 32.44477 28544 ft 500 kts 146°
2026-04-27 14:08 28.79055 32.46857 28836 ft 501 kts 147°
2026-04-27 14:08 28.76267 32.49227 29263 ft 499 kts 147°
2026-04-27 14:08 28.73491 32.51586 29734 ft 496 kts 147°
2026-04-27 14:09 28.70726 32.53934 30111 ft 495 kts 147°
2026-04-27 14:09 28.67966 32.56274 30346 ft 497 kts 147°
2026-04-27 14:09 28.65186 32.58630 30510 ft 500 kts 147°
2026-04-27 14:09 28.62426 32.60966 30722 ft 501 kts 147°
2026-04-27 14:10 28.59624 32.63336 30988 ft 502 kts 147°
2026-04-27 14:10 28.56819 32.65709 31235 ft 502 kts 148°
2026-04-27 14:10 28.54008 32.68085 31454 ft 504 kts 148°
2026-04-27 14:10 28.51195 32.70461 31686 ft 505 kts 148°
2026-04-27 14:11 28.48375 32.72842 31917 ft 505 kts 148°
2026-04-27 14:11 28.45548 32.75226 32146 ft 507 kts 148°
2026-04-27 14:11 28.42715 32.77615 32358 ft 507 kts 148°
2026-04-27 14:11 28.39874 32.80009 32605 ft 508 kts 149°
2026-04-27 14:12 28.37032 32.82401 32830 ft 509 kts 149°
2026-04-27 14:12 28.34186 32.84795 33043 ft 510 kts 149°
2026-04-27 14:12 28.31333 32.87194 33275 ft 510 kts 149°
2026-04-27 14:12 28.28474 32.89596 33487 ft 511 kts 149°
2026-04-27 14:13 28.25617 32.91995 33688 ft 512 kts 149°
2026-04-27 14:13 28.22747 32.94403 33916 ft 513 kts 149°
2026-04-27 14:13 28.19874 32.96812 34082 ft 514 kts 150°
2026-04-27 14:13 28.17002 32.99218 34251 ft 515 kts 150°
2026-04-27 14:14 28.14116 33.01635 34424 ft 515 kts 150°
2026-04-27 14:14 28.11234 33.04047 34613 ft 515 kts 150°
2026-04-27 14:14 28.08348 33.06461 34767 ft 516 kts 150°
2026-04-27 14:14 28.05456 33.08879 34937 ft 517 kts 150°
2026-04-27 14:15 28.02564 33.11294 35127 ft 517 kts 151°
2026-04-27 14:15 27.99659 33.13699 35305 ft 516 kts 152°
2026-04-27 14:15 27.96709 33.16102 35480 ft 516 kts 152°
2026-04-27 14:15 27.93782 33.18469 35645 ft 516 kts 152°
2026-04-27 14:16 27.90853 33.20831 35823 ft 516 kts 152°
2026-04-27 14:16 27.87937 33.23185 36000 ft 516 kts 152°
2026-04-27 14:16 27.85017 33.25545 36184 ft 516 kts 153°
2026-04-27 14:16 27.82102 33.27903 36367 ft 515 kts 153°
2026-04-27 14:17 27.79187 33.30262 36554 ft 515 kts 153°
2026-04-27 14:17 27.76282 33.32614 36719 ft 514 kts 153°
2026-04-27 14:17 27.73378 33.34962 36883 ft 513 kts 153°
2026-04-27 14:18 27.67537 33.39676 36883 ft 518 kts 153°
2026-04-27 14:18 27.61656 33.44417 36885 ft 522 kts 153°
2026-04-27 14:19 27.55733 33.49188 36885 ft 525 kts 153°
2026-04-27 14:19 27.49779 33.53979 36870 ft 527 kts 153°
2026-04-27 14:20 27.43854 33.58741 36878 ft 527 kts 153°
2026-04-27 14:20 27.37879 33.63535 36873 ft 528 kts 153°
2026-04-27 14:21 27.31903 33.68323 36874 ft 528 kts 153°
2026-04-27 14:21 27.25904 33.73125 36881 ft 528 kts 153°
2026-04-27 14:22 27.21008 33.77278 36869 ft 539 kts 144°
2026-04-27 14:22 27.16425 33.83639 36880 ft 557 kts 126°
2026-04-27 14:23 27.13249 33.91678 36884 ft 566 kts 115°
2026-04-27 14:23 27.10463 33.99948 36876 ft 567 kts 115°
2026-04-27 14:24 27.07625 34.08203 36861 ft 567 kts 116°
2026-04-27 14:24 27.04706 34.16418 36859 ft 567 kts 116°
2026-04-27 14:25 27.01756 34.24620 36863 ft 567 kts 116°
2026-04-27 14:25 26.98801 34.32825 36859 ft 567 kts 116°
2026-04-27 14:26 26.95849 34.41030 36856 ft 568 kts 116°
2026-04-27 14:26 26.92895 34.49231 36853 ft 568 kts 116°
2026-04-27 14:27 26.89932 34.57437 36855 ft 568 kts 116°
2026-04-27 14:27 26.86966 34.65634 36857 ft 568 kts 116°
2026-04-27 14:28 26.83993 34.73831 36857 ft 568 kts 116°
2026-04-27 14:28 26.81038 34.81961 36855 ft 568 kts 116°
2026-04-27 14:29 26.78035 34.90206 36854 ft 568 kts 117°
2026-04-27 14:29 26.75067 34.98338 36853 ft 568 kts 117°
2026-04-27 14:30 26.72079 35.06509 36849 ft 567 kts 117°
2026-04-27 14:30 26.69084 35.14682 36848 ft 567 kts 117°
2026-04-27 14:31 26.66081 35.22857 36853 ft 567 kts 117°
2026-04-27 14:31 26.63081 35.31009 36855 ft 567 kts 117°
2026-04-27 14:32 26.60076 35.39159 36855 ft 567 kts 117°
2026-04-27 14:32 26.57069 35.47300 36862 ft 567 kts 117°
2026-04-27 14:33 26.54039 35.55354 36850 ft 566 kts 118°
2026-04-27 14:33 26.50933 35.63429 36855 ft 566 kts 118°
2026-04-27 14:34 26.47825 35.71498 36856 ft 565 kts 118°
2026-04-27 14:34 26.44724 35.79567 36857 ft 565 kts 118°
2026-04-27 14:35 26.41625 35.87628 36857 ft 565 kts 118°
2026-04-27 14:35 26.38519 35.95692 36863 ft 565 kts 118°
2026-04-27 14:36 26.35413 36.03736 36864 ft 564 kts 118°
2026-04-27 14:36 26.32305 36.11769 36873 ft 564 kts 119°
2026-04-27 14:37 26.29191 36.19801 36873 ft 564 kts 119°
2026-04-27 14:37 26.26074 36.27824 36879 ft 564 kts 119°
2026-04-27 14:38 26.22957 36.35834 36883 ft 564 kts 119°
2026-04-27 14:38 26.19836 36.43841 36884 ft 563 kts 119°
2026-04-27 14:39 26.16604 36.51705 36883 ft 559 kts 124°
2026-04-27 14:39 26.12887 36.59285 36886 ft 557 kts 126°
2026-04-27 14:40 26.09084 36.66791 36876 ft 557 kts 126°
2026-04-27 14:40 26.05325 36.74324 36875 ft 557 kts 125°
2026-04-27 14:41 26.01593 36.81888 36871 ft 557 kts 125°
2026-04-27 14:41 25.97867 36.89440 36871 ft 557 kts 125°
2026-04-27 14:42 25.94133 36.96983 36874 ft 557 kts 125°
2026-04-27 14:42 25.90400 37.04505 36875 ft 556 kts 125°
2026-04-27 14:43 25.86659 37.12030 36887 ft 556 kts 125°
2026-04-27 14:43 25.82908 37.19566 36882 ft 556 kts 125°
2026-04-27 14:44 25.79188 37.27028 36875 ft 556 kts 125°
2026-04-27 14:44 25.75448 37.34536 36876 ft 556 kts 125°
2026-04-27 14:45 25.71712 37.42033 36880 ft 555 kts 126°
2026-04-27 14:45 25.67970 37.49527 36876 ft 555 kts 126°
2026-04-27 14:46 25.64231 37.57002 36878 ft 554 kts 125°
2026-04-27 14:46 25.60482 37.64488 36861 ft 555 kts 125°
2026-04-27 14:47 25.56729 37.71968 36868 ft 556 kts 125°
2026-04-27 14:47 25.52972 37.79442 36873 ft 556 kts 125°
2026-04-27 14:48 25.49210 37.86916 36859 ft 556 kts 126°
2026-04-27 14:48 25.43559 37.98118 36849 ft 556 kts 126°
2026-04-27 14:49 25.39782 38.05588 36847 ft 556 kts 126°
2026-04-27 14:49 25.36006 38.13047 36836 ft 556 kts 126°
2026-04-27 14:50 25.32228 38.20498 36843 ft 556 kts 126°
2026-04-27 14:50 25.28446 38.27944 36827 ft 555 kts 126°
2026-04-27 14:51 25.24667 38.35374 36827 ft 554 kts 126°
2026-04-27 14:51 25.21527 38.41537 36832 ft 554 kts 126°
2026-04-27 14:52 25.17108 38.50200 36841 ft 553 kts 126°
2026-04-27 14:52 25.13335 38.57581 36814 ft 552 kts 125°
2026-04-27 14:53 25.09583 38.64914 36809 ft 551 kts 125°
2026-04-27 14:53 25.05822 38.72263 36857 ft 549 kts 126°
2026-04-27 14:54 25.02059 38.79595 36849 ft 550 kts 125°
2026-04-27 14:54 24.98291 38.86934 36850 ft 550 kts 125°
2026-04-27 14:55 24.94514 38.94262 36851 ft 549 kts 126°
2026-04-27 14:55 24.90716 39.01574 36855 ft 549 kts 126°
2026-04-27 14:56 24.86915 39.08882 36853 ft 549 kts 126°
2026-04-27 14:56 24.83115 39.16188 36857 ft 549 kts 126°
2026-04-27 14:57 24.79318 39.23476 36860 ft 549 kts 126°
2026-04-27 14:57 24.75520 39.30757 36867 ft 549 kts 126°
2026-04-27 14:58 24.71720 39.38034 36875 ft 548 kts 125°
2026-04-27 14:58 24.67921 39.45300 36888 ft 547 kts 125°
2026-04-27 14:59 24.64126 39.52545 36887 ft 547 kts 125°
2026-04-27 14:59 24.60328 39.59790 36890 ft 548 kts 125°
2026-04-27 15:00 24.56584 39.67086 36872 ft 550 kts 120°
2026-04-27 15:00 24.54153 39.75074 36877 ft 556 kts 102°
2026-04-27 15:01 24.53289 39.83535 36882 ft 557 kts 97°
2026-04-27 15:01 24.52602 39.92004 36887 ft 557 kts 97°
2026-04-27 15:02 24.51845 40.00474 36887 ft 557 kts 98°
2026-04-27 15:02 24.51030 40.08930 36878 ft 557 kts 98°
2026-04-27 15:03 24.50203 40.17321 36884 ft 557 kts 98°
2026-04-27 15:03 24.49370 40.25780 36891 ft 557 kts 98°
2026-04-27 15:04 24.48538 40.34233 36880 ft 557 kts 98°
2026-04-27 15:04 24.47702 40.42690 36873 ft 557 kts 98°
2026-04-27 15:05 24.47003 40.49720 36870 ft 557 kts 98°
2026-04-27 15:05 24.46158 40.58166 36873 ft 557 kts 98°
2026-04-27 15:06 24.45309 40.66605 36871 ft 556 kts 98°
2026-04-27 15:06 24.44455 40.75043 36871 ft 555 kts 98°
2026-04-27 15:07 24.43599 40.83460 36871 ft 554 kts 98°
2026-04-27 15:07 24.42741 40.91842 36877 ft 552 kts 98°
2026-04-27 15:08 24.41880 41.00220 36883 ft 552 kts 98°
2026-04-27 15:08 24.41016 41.08574 36885 ft 551 kts 98°
2026-04-27 15:09 24.40144 41.16876 36886 ft 551 kts 98°
2026-04-27 15:09 24.39260 41.25229 36899 ft 552 kts 98°
2026-04-27 15:10 24.38372 41.33593 36905 ft 552 kts 98°
2026-04-27 15:10 24.37478 41.41972 36906 ft 553 kts 98°
2026-04-27 15:11 24.36580 41.50345 36914 ft 553 kts 98°
2026-04-27 15:11 24.35676 41.58737 36915 ft 554 kts 98°
2026-04-27 15:12 24.34768 41.67119 36922 ft 553 kts 98°
2026-04-27 15:12 24.33854 41.75509 36918 ft 553 kts 98°
2026-04-27 15:13 24.32804 41.83861 36916 ft 551 kts 106°
2026-04-27 15:13 24.30752 41.91932 36920 ft 549 kts 110°
2026-04-27 15:14 24.28539 41.99925 36919 ft 548 kts 110°
2026-04-27 15:14 24.26382 42.07889 36928 ft 547 kts 109°
2026-04-27 15:15 24.24263 42.15884 36932 ft 546 kts 109°
2026-04-27 15:15 24.22153 42.23878 36934 ft 546 kts 109°
2026-04-27 15:16 24.20038 42.31857 36947 ft 545 kts 109°
2026-04-27 15:16 24.17915 42.39830 36952 ft 545 kts 109°
2026-04-27 15:17 24.15786 42.47808 36955 ft 546 kts 109°
2026-04-27 15:17 24.13651 42.55788 36958 ft 546 kts 109°
2026-04-27 15:18 24.11512 42.63771 36956 ft 547 kts 109°
2026-04-27 15:18 24.09362 42.71772 36960 ft 548 kts 109°
2026-04-27 15:19 24.07208 42.79773 36958 ft 548 kts 109°
2026-04-27 15:19 24.05051 42.87771 36959 ft 548 kts 109°
2026-04-27 15:20 24.02888 42.95773 36956 ft 548 kts 109°
2026-04-27 15:20 24.00725 43.03768 36954 ft 548 kts 109°
2026-04-27 15:21 23.98572 43.11710 36949 ft 548 kts 109°
2026-04-27 15:21 23.96400 43.19705 36946 ft 548 kts 109°
2026-04-27 15:22 23.94225 43.27693 36947 ft 547 kts 109°
2026-04-27 15:22 23.92052 43.35656 36949 ft 547 kts 109°
2026-04-27 15:23 23.89872 43.43626 36941 ft 547 kts 109°
2026-04-27 15:23 23.87689 43.51590 36940 ft 546 kts 109°
2026-04-27 15:24 23.85510 43.59524 36931 ft 545 kts 109°
2026-04-27 15:24 23.83338 43.67412 36931 ft 545 kts 109°
2026-04-27 15:25 23.81155 43.75325 36925 ft 545 kts 109°
2026-04-27 15:25 23.78965 43.83249 36915 ft 545 kts 109°
2026-04-27 15:26 23.77092 43.91269 36895 ft 548 kts 98°
2026-04-27 15:26 23.76456 43.99565 36888 ft 549 kts 95°
2026-04-27 15:27 23.75951 44.07889 36885 ft 549 kts 95°
2026-04-27 15:27 23.75375 44.16243 36879 ft 550 kts 96°
2026-04-27 15:28 23.74750 44.24514 36882 ft 550 kts 96°
2026-04-27 15:28 23.74102 44.32897 36878 ft 550 kts 96°
2026-04-27 15:29 23.73465 44.41159 36879 ft 551 kts 96°
2026-04-27 15:29 23.72823 44.49484 36871 ft 551 kts 96°
2026-04-27 15:30 23.72176 44.57809 36879 ft 550 kts 96°
2026-04-27 15:30 23.71527 44.66111 36872 ft 549 kts 96°
2026-04-27 15:31 23.70873 44.74409 36877 ft 548 kts 96°
2026-04-27 15:31 23.70215 44.82705 36875 ft 548 kts 96°
2026-04-27 15:32 23.69552 44.90991 36873 ft 548 kts 96°
2026-04-27 15:32 23.68883 44.99276 36875 ft 548 kts 96°
2026-04-27 15:33 23.68210 45.07549 36868 ft 548 kts 96°
2026-04-27 15:33 23.67534 45.15825 36862 ft 548 kts 96°
2026-04-27 15:34 23.66852 45.24119 36847 ft 548 kts 96°
2026-04-27 15:34 23.66170 45.32375 36856 ft 548 kts 96°
2026-04-27 15:35 23.65482 45.40660 36848 ft 548 kts 96°
2026-04-27 15:35 23.64790 45.48946 36850 ft 548 kts 96°
2026-04-27 15:36 23.64095 45.57209 36847 ft 547 kts 96°
2026-04-27 15:36 23.63396 45.65474 36844 ft 547 kts 96°
2026-04-27 15:37 23.62697 45.73693 36837 ft 547 kts 96°
2026-04-27 15:37 23.61991 45.81960 36841 ft 547 kts 96°
2026-04-27 15:38 23.61282 45.90218 36839 ft 547 kts 96°
2026-04-27 15:38 23.60570 45.98463 36841 ft 546 kts 96°
2026-04-27 15:39 23.59852 46.06720 36848 ft 546 kts 96°
2026-04-27 15:39 23.59131 46.14954 36851 ft 546 kts 96°
2026-04-27 15:40 23.58406 46.23196 36850 ft 546 kts 96°
2026-04-27 15:40 23.57681 46.31379 36866 ft 545 kts 96°
2026-04-27 15:41 23.56948 46.39607 36860 ft 546 kts 96°
2026-04-27 15:41 23.56209 46.47862 36858 ft 546 kts 96°
2026-04-27 15:42 23.55465 46.56103 36855 ft 545 kts 96°
2026-04-27 15:42 23.54714 46.64252 36852 ft 545 kts 96°
2026-04-27 15:43 23.53952 46.72461 36856 ft 544 kts 96°
2026-04-27 15:43 23.53192 46.80623 36855 ft 544 kts 96°
2026-04-27 15:44 23.52421 46.88862 36842 ft 544 kts 96°
2026-04-27 15:44 23.51651 46.97060 36843 ft 544 kts 96°
2026-04-27 15:45 23.50876 47.05254 36839 ft 544 kts 96°
2026-04-27 15:45 23.50096 47.13448 36831 ft 543 kts 96°
2026-04-27 15:46 23.49312 47.21641 36827 ft 543 kts 96°
2026-04-27 15:46 23.48538 47.29692 36829 ft 543 kts 96°
2026-04-27 15:47 23.47751 47.37823 36826 ft 543 kts 96°
2026-04-27 15:47 23.46956 47.46006 36822 ft 543 kts 96°
2026-04-27 15:48 23.46157 47.54192 36824 ft 542 kts 96°
2026-04-27 15:49 23.45096 47.65075 36817 ft 542 kts 96°
2026-04-27 15:49 23.44166 47.74576 36813 ft 542 kts 96°
2026-04-27 15:50 23.43493 47.81412 36814 ft 542 kts 96°
2026-04-27 15:50 23.42685 47.89567 36807 ft 541 kts 96°
2026-04-27 15:51 23.41878 47.97675 36804 ft 541 kts 96°
2026-04-27 15:51 23.41064 48.05815 36799 ft 541 kts 97°
2026-04-27 15:52 23.40244 48.13958 36787 ft 540 kts 97°
2026-04-27 15:52 23.39421 48.22095 36787 ft 540 kts 97°
2026-04-27 15:53 23.38596 48.30225 36787 ft 540 kts 97°
2026-04-27 15:53 23.37782 48.38345 36786 ft 540 kts 96°
2026-04-27 15:54 23.37027 48.46467 36789 ft 539 kts 96°
2026-04-27 15:54 23.36283 48.54591 36787 ft 539 kts 96°
2026-04-27 15:55 23.35527 48.62710 36786 ft 539 kts 96°
2026-04-27 15:55 23.34760 48.70834 36784 ft 539 kts 96°
2026-04-27 15:56 23.33992 48.78891 36786 ft 539 kts 96°
2026-04-27 15:56 23.33217 48.86995 36782 ft 539 kts 96°
2026-04-27 15:57 23.32437 48.95103 36784 ft 538 kts 96°
2026-04-27 15:57 23.31651 49.03228 36781 ft 538 kts 96°
2026-04-27 15:58 23.30865 49.11315 36781 ft 538 kts 96°
2026-04-27 15:58 23.30074 49.19412 36784 ft 537 kts 96°
2026-04-27 15:59 23.29281 49.27485 36779 ft 537 kts 96°
2026-04-27 15:59 23.28483 49.35561 36780 ft 536 kts 96°
2026-04-27 16:00 23.27687 49.43571 36786 ft 536 kts 96°
2026-04-27 16:00 23.26882 49.51637 36785 ft 536 kts 96°
2026-04-27 16:01 23.26073 49.59697 36790 ft 536 kts 96°
2026-04-27 16:01 23.25262 49.67744 36791 ft 535 kts 96°
2026-04-27 16:02 23.24445 49.75792 36797 ft 535 kts 96°
2026-04-27 16:02 23.23626 49.83833 36797 ft 535 kts 96°
2026-04-27 16:03 23.22802 49.91873 36804 ft 535 kts 96°
2026-04-27 16:03 23.21974 49.99917 36796 ft 535 kts 96°
2026-04-27 16:04 23.21143 50.07948 36805 ft 534 kts 96°
2026-04-27 16:04 23.20314 50.15923 36802 ft 534 kts 96°
2026-04-27 16:05 23.19475 50.23951 36810 ft 534 kts 96°
2026-04-27 16:05 23.18632 50.31968 36807 ft 534 kts 96°
2026-04-27 16:06 23.17785 50.39993 36810 ft 534 kts 96°
2026-04-27 16:06 23.16940 50.47960 36812 ft 534 kts 96°
2026-04-27 16:07 23.16086 50.55977 36813 ft 534 kts 96°
2026-04-27 16:07 23.15228 50.63987 36815 ft 534 kts 96°
2026-04-27 16:08 23.14366 50.71988 36815 ft 533 kts 96°
2026-04-27 16:08 23.13500 50.80001 36816 ft 533 kts 96°
2026-04-27 16:09 23.12631 50.87992 36813 ft 533 kts 96°
2026-04-27 16:09 23.11322 50.99971 36815 ft 532 kts 96°
2026-04-27 16:10 23.09564 51.15923 36816 ft 531 kts 96°
2026-04-27 16:11 23.08236 51.27871 36815 ft 531 kts 96°
2026-04-27 16:12 23.06906 51.39757 36822 ft 530 kts 96°
2026-04-27 16:13 23.05562 51.51684 36818 ft 530 kts 97°
2026-04-27 16:13 23.04210 51.63598 36815 ft 530 kts 97°
2026-04-27 16:14 23.02396 51.79462 36816 ft 529 kts 97°
2026-04-27 16:15 23.00585 51.95167 36815 ft 529 kts 97°
2026-04-27 16:16 22.98746 52.10970 36816 ft 529 kts 97°
2026-04-27 16:17 22.96887 52.26796 36811 ft 528 kts 97°
2026-04-27 16:18 22.95014 52.42614 36817 ft 528 kts 97°
2026-04-27 16:19 22.94070 52.50529 36817 ft 528 kts 97°
2026-04-27 16:20 22.92178 52.66305 36815 ft 527 kts 97°
2026-04-27 16:21 22.90754 52.78083 36817 ft 527 kts 97°
2026-04-27 16:22 22.88838 52.93820 36819 ft 526 kts 97°
2026-04-27 16:22 22.87391 53.05620 36817 ft 526 kts 97°
2026-04-27 16:23 22.85936 53.17412 36815 ft 525 kts 97°
2026-04-27 16:24 22.84963 53.25256 36816 ft 525 kts 97°
2026-04-27 16:25 22.83003 53.40961 36813 ft 525 kts 97°
2026-04-27 16:26 22.81034 53.56613 36816 ft 525 kts 97°
2026-04-27 16:27 22.79043 53.72305 36812 ft 525 kts 97°
2026-04-27 16:28 22.76536 53.91902 36810 ft 525 kts 98°
2026-04-27 16:29 22.74004 54.11490 36810 ft 525 kts 98°
2026-04-27 16:30 22.71963 54.27150 36804 ft 525 kts 98°
2026-04-27 16:31 22.70198 54.46749 36814 ft 522 kts 81°
2026-04-27 16:32 22.71640 54.53062 36796 ft 518 kts 65°
2026-04-27 16:32 22.73677 54.57774 36811 ft 516 kts 61°
2026-04-27 16:33 22.77915 54.67052 36805 ft 517 kts 61°
2026-04-27 16:33 22.81040 54.74070 36799 ft 517 kts 62°
2026-04-27 16:34 22.84128 54.81123 36801 ft 518 kts 62°
2026-04-27 16:34 22.87214 54.88190 36803 ft 518 kts 62°
2026-04-27 16:35 22.90300 54.95256 36803 ft 518 kts 62°
2026-04-27 16:36 22.94911 55.05824 36809 ft 519 kts 62°
2026-04-27 16:36 22.97995 55.12909 36808 ft 519 kts 62°
2026-04-27 16:37 23.01196 55.19922 36793 ft 515 kts 52°
2026-04-27 16:37 23.03521 55.22814 36828 ft 505 kts 36°
2026-04-27 16:37 23.06360 55.25002 36812 ft 496 kts 23°
2026-04-27 16:37 23.09516 55.26376 36819 ft 485 kts 10°
2026-04-27 16:38 23.12783 55.27301 36824 ft 483 kts
2026-04-27 16:38 23.16005 55.28182 36700 ft 474 kts
2026-04-27 16:38 23.19201 55.29062 36373 ft 471 kts
2026-04-27 16:38 23.22366 55.29950 35884 ft 471 kts
2026-04-27 16:39 23.25529 55.30857 35316 ft 468 kts
2026-04-27 16:39 23.28664 55.31772 34771 ft 464 kts
2026-04-27 16:39 23.31762 55.32684 34235 ft 461 kts
2026-04-27 16:39 23.34806 55.33584 33701 ft 457 kts
2026-04-27 16:40 23.37860 55.34487 33088 ft 454 kts
2026-04-27 16:40 23.40899 55.35385 32487 ft 451 kts
2026-04-27 16:40 23.43916 55.36276 31900 ft 448 kts
2026-04-27 16:40 23.46922 55.37163 31330 ft 446 kts
2026-04-27 16:41 23.49912 55.38045 30760 ft 444 kts
2026-04-27 16:41 23.52889 55.38925 30211 ft 443 kts
2026-04-27 16:41 23.55858 55.39802 29630 ft 441 kts
2026-04-27 16:41 23.58817 55.40676 28995 ft 440 kts
2026-04-27 16:42 23.61773 55.41551 28377 ft 439 kts
2026-04-27 16:42 23.64717 55.42423 27765 ft 437 kts
2026-04-27 16:42 23.67650 55.43292 27171 ft 436 kts
2026-04-27 16:42 23.70571 55.44158 26587 ft 434 kts
2026-04-27 16:43 23.73473 55.45019 26006 ft 428 kts
2026-04-27 16:43 23.76315 55.45864 25437 ft 418 kts
2026-04-27 16:43 23.79099 55.46601 24860 ft 403 kts
2026-04-27 16:43 23.81814 55.46482 24312 ft 381 kts 341°
2026-04-27 16:44 23.84221 55.45488 23788 ft 363 kts 324°
2026-04-27 16:44 23.86225 55.43899 23243 ft 350 kts 313°
2026-04-27 16:44 23.87843 55.41967 22622 ft 340 kts 303°
2026-04-27 16:44 23.89112 55.39821 22008 ft 332 kts 295°
2026-04-27 16:45 23.90127 55.37575 21411 ft 328 kts 293°
2026-04-27 16:45 23.91107 55.35342 20820 ft 324 kts 293°
2026-04-27 16:45 23.92073 55.33133 20241 ft 321 kts 294°
2026-04-27 16:45 23.93037 55.30940 19676 ft 318 kts 294°
2026-04-27 16:46 23.93994 55.28768 19114 ft 316 kts 294°
2026-04-27 16:46 23.94950 55.26609 18571 ft 314 kts 294°
2026-04-27 16:46 23.95901 55.24464 18034 ft 313 kts 294°
2026-04-27 16:46 23.96848 55.22329 17413 ft 311 kts 294°
2026-04-27 16:47 23.97789 55.20209 16815 ft 310 kts 294°
2026-04-27 16:47 23.98714 55.18122 16232 ft 308 kts 294°
2026-04-27 16:47 23.99661 55.15988 15647 ft 307 kts 294°
2026-04-27 16:47 24.00580 55.13916 15089 ft 306 kts 294°
2026-04-27 16:48 24.01505 55.11828 14528 ft 305 kts 294°
2026-04-27 16:48 24.02433 55.09743 13982 ft 304 kts 295°
2026-04-27 16:48 24.03389 55.07688 13419 ft 303 kts 296°
2026-04-27 16:49 24.05319 55.03607 12224 ft 300 kts 297°
2026-04-27 16:49 24.06498 55.01744 11624 ft 299 kts 314°
2026-04-27 16:49 24.07923 55.00610 11131 ft 298 kts 334°
2026-04-27 16:49 24.09919 55.00027 10597 ft 297 kts 349°
2026-04-27 16:50 24.11965 54.99745 10038 ft 295 kts 351°
2026-04-27 16:50 24.13971 54.99509 9484 ft 293 kts 352°
2026-04-27 16:50 24.15991 54.99295 8876 ft 290 kts 356°
2026-04-27 16:50 24.17987 54.99681 8278 ft 293 kts 17°
2026-04-27 16:51 24.19853 55.00565 7722 ft 291 kts 21°
2026-04-27 16:51 24.21679 55.01512 7155 ft 289 kts 21°
2026-04-27 16:51 24.23486 55.02456 6602 ft 286 kts 19°
2026-04-27 16:51 24.25395 55.02856 6020 ft 277 kts 354°
2026-04-27 16:52 24.27209 55.02267 5455 ft 272 kts 328°
2026-04-27 16:52 24.28505 55.00832 5139 ft 265 kts 302°
2026-04-27 16:52 24.29020 54.98902 4914 ft 268 kts 278°
2026-04-27 16:52 24.29030 54.96892 4705 ft 265 kts 273°
2026-04-27 16:53 24.28971 54.94887 4496 ft 261 kts 272°
2026-04-27 16:53 24.28901 54.92914 4281 ft 257 kts 272°
2026-04-27 16:53 24.28824 54.90964 4112 ft 247 kts 272°
2026-04-27 16:53 24.28740 54.89108 4045 ft 243 kts 272°
2026-04-27 16:54 24.28674 54.87280 4007 ft 242 kts 276°
2026-04-27 16:54 24.29151 54.85596 3970 ft 225 kts 303°
2026-04-27 16:54 24.29963 54.84159 3737 ft 218 kts 306°
2026-04-27 16:54 24.30822 54.82831 3482 ft 209 kts 309°
2026-04-27 16:55 24.31688 54.81583 3228 ft 202 kts 310°
2026-04-27 16:55 24.32530 54.80389 2994 ft 194 kts 310°
2026-04-27 16:55 24.33340 54.79241 2756 ft 186 kts 310°
2026-04-27 16:55 24.34109 54.78149 2527 ft 180 kts 310°
2026-04-27 16:56 24.34860 54.77084 2298 ft 173 kts 310°
2026-04-27 16:56 24.35579 54.76063 2087 ft 163 kts 310°
2026-04-27 16:56 24.36246 54.75116 1910 ft 148 kts 310°
2026-04-27 16:56 24.36873 54.74228 1707 ft 145 kts 310°
2026-04-27 16:57 24.37487 54.73358 1539 ft 145 kts 310°
2026-04-27 16:57 24.38103 54.72485 1349 ft 144 kts 310°
2026-04-27 16:57 24.38713 54.71619 1159 ft 143 kts 310°
2026-04-27 16:57 24.39329 54.70747 984 ft 147 kts 308°
2026-04-27 16:58 24.39965 54.69848 823 ft 151 kts 306°
2026-04-27 16:58 24.40604 54.68932 634 ft 150 kts 306°
2026-04-27 16:58 24.41235 54.68025 453 ft 150 kts 307°
2026-04-27 16:58 24.41879 54.67115 284 ft 151 kts 308°
2026-04-27 16:59 24.42525 54.66213 107 ft 149 kts 307°
2026-04-27 16:59 24.43114 54.65399 110 ft 130 kts 309°
2026-04-27 16:59 24.43744 54.64545 735 ft 152 kts 309°
2026-04-27 16:59 24.44456 54.63585 1519 ft 170 kts 310°
2026-04-27 17:00 24.45821 54.61774 2875 ft 193 kts 311°
2026-04-27 17:00 24.47043 54.60165 3625 ft 213 kts 312°
2026-04-27 17:00 24.47973 54.58891 4135 ft 211 kts 303°
2026-04-27 17:01 24.48310 54.57353 4789 ft 212 kts 269°
2026-04-27 17:01 24.47768 54.55830 5417 ft 225 kts 238°
2026-04-27 17:01 24.46981 54.55027 5647 ft 243 kts 217°
2026-04-27 17:02 24.45674 54.54456 5905 ft 262 kts 195°
2026-04-27 17:02 24.43777 54.54473 5989 ft 288 kts 168°
2026-04-27 17:03 24.41950 54.55429 5795 ft 287 kts 140°
2026-04-27 17:03 24.40524 54.56895 5521 ft 284 kts 133°
2026-04-27 17:03 24.39204 54.58479 5198 ft 277 kts 130°
2026-04-27 17:03 24.37937 54.60062 4916 ft 267 kts 129°
2026-04-27 17:04 24.36741 54.61561 4672 ft 262 kts 129°
2026-04-27 17:04 24.35573 54.63071 4431 ft 257 kts 127°
2026-04-27 17:04 24.34451 54.64568 4180 ft 251 kts 127°
2026-04-27 17:04 24.33354 54.66032 3937 ft 246 kts 127°
2026-04-27 17:05 24.32376 54.67550 3684 ft 242 kts 107°
2026-04-27 17:05 24.32091 54.69298 3610 ft 230 kts 91°
2026-04-27 17:05 24.31909 54.71067 3505 ft 237 kts 92°
2026-04-27 17:05 24.31784 54.72266 3430 ft 241 kts 92°
2026-04-27 17:06 24.32146 54.74575 3239 ft 223 kts 49°
2026-04-27 17:06 24.33315 54.75474 3118 ft 201 kts
2026-04-27 17:06 24.34638 54.75336 2778 ft 191 kts 339°
2026-04-27 17:06 24.35815 54.74671 2309 ft 190 kts 329°
2026-04-27 17:07 24.36896 54.73887 1811 ft 185 kts 319°
2026-04-27 17:07 24.37769 54.72900 1456 ft 173 kts 313°
2026-04-27 17:07 24.38493 54.71932 1230 ft 156 kts 310°
2026-04-27 17:07 24.39126 54.71035 1024 ft 146 kts 309°
2026-04-27 17:08 24.39749 54.70152 859 ft 150 kts 307°
2026-04-27 17:08 24.40396 54.69232 692 ft 154 kts 307°
2026-04-27 17:08 24.41045 54.68289 523 ft 155 kts 306°
2026-04-27 17:08 24.41711 54.67361 320 ft 155 kts 306°
2026-04-27 17:09 24.42363 54.66445 119 ft 150 kts 307°
2026-04-27 17:09 24.42949 54.65617 91 ft 114 kts 308°
2026-04-27 17:09 24.43299 54.65126 91 ft 54 kts 309°
2026-04-27 17:09 24.43566 54.64881 88 ft 41 kts 338°
2026-04-27 17:10 24.43749 54.64787 90 ft 24 kts 315°
2026-04-27 17:10 24.43852 54.64648 90 ft 23 kts 308°
2026-04-27 17:10 24.43949 54.64513 91 ft 22 kts 308°
2026-04-27 17:10 24.44046 54.64379 90 ft 23 kts 308°
2026-04-27 17:11 24.44146 54.64239 90 ft 24 kts 308°
2026-04-27 17:11 24.44366 54.63928 90 ft 27 kts 308°
2026-04-27 17:11 24.44477 54.63774 88 ft 25 kts 308°
2026-04-27 17:12 24.44636 54.63702 90 ft 11 kts 21°
2026-04-27 17:12 24.44707 54.63753 89 ft 14 kts 65°
2026-04-27 17:12 24.44752 54.63863 89 ft 16 kts 65°
2026-04-27 17:13 24.44799 54.63974 88 ft 15 kts 64°
2026-04-27 17:13 24.44842 54.64040 89 ft 7 kts
2026-04-27 17:13 24.44891 54.64021 90 ft 8 kts 334°
2026-04-27 17:13 24.44928 54.64001 90 ft 4 kts 335°
2026-04-27 17:14 24.44936 54.63997 88 ft 0 kts 335°